SVR388 UNOO-UUDD

Flight info

Callsign SVR388
Flight time N/A
Altitude 34000
Route NANOL5D NANOL B814 OSMIK A231 PEMAG L158 SISPO/K0828F360 L158 APTAR T787 URAGO URAGO3P
Aircraft A320/M-SDE3FGHIRWY/LB1

Departure

Time 2026-04-27 11:00
Airport Omsk Central Airport (UNOO)

Arrival

Time N/A
Airport Domodedovo International Airport (UUDD)
Time Latitude Longitude Altitude Speed Heading
2026-04-27 10:25 54.96330 73.31997 298 ft 0 kts 137°
2026-04-27 10:56 54.96306 73.32036 298 ft 12 kts 133°
2026-04-27 10:56 54.96315 73.32148 299 ft 9 kts 37°
2026-04-27 10:56 54.96364 73.32206 300 ft 8 kts 35°
2026-04-27 10:57 54.96421 73.32237 300 ft 11 kts
2026-04-27 10:57 54.96478 73.32354 298 ft 16 kts 73°
2026-04-27 10:57 54.96507 73.32569 301 ft 18 kts 76°
2026-04-27 10:57 54.96536 73.32764 301 ft 15 kts 76°
2026-04-27 10:58 54.96558 73.32935 298 ft 13 kts 78°
2026-04-27 10:58 54.96605 73.33042 298 ft 11 kts 13°
2026-04-27 10:58 54.96671 73.33026 299 ft 8 kts 345°
2026-04-27 10:58 54.96721 73.33005 298 ft 7 kts 348°
2026-04-27 10:59 54.96799 73.32976 298 ft 16 kts 348°
2026-04-27 10:59 54.96918 73.32926 301 ft 17 kts 346°
2026-04-27 10:59 54.96953 73.32831 301 ft 5 kts 257°
2026-04-27 11:00 54.96888 73.32326 310 ft 78 kts 257°
2026-04-27 11:00 54.96717 73.31053 308 ft 135 kts 257°
2026-04-27 11:00 54.96477 73.29246 577 ft 159 kts 258°
2026-04-27 11:00 54.96231 73.27363 1746 ft 159 kts 259°
2026-04-27 11:01 54.95979 73.25513 2459 ft 157 kts 262°
2026-04-27 11:01 54.95719 73.23554 2725 ft 177 kts 263°
2026-04-27 11:01 54.95428 73.21334 2920 ft 200 kts 262°
2026-04-27 11:01 54.95104 73.18866 3173 ft 224 kts 262°
2026-04-27 11:02 54.94732 73.16086 3636 ft 240 kts 262°
2026-04-27 11:02 54.94347 73.13267 4326 ft 245 kts 261°
2026-04-27 11:02 54.93949 73.10373 5103 ft 248 kts 261°
2026-04-27 11:02 54.93544 73.07426 5858 ft 252 kts 260°
2026-04-27 11:03 54.93166 73.04427 6612 ft 255 kts 265°
2026-04-27 11:03 54.93054 73.01340 7304 ft 257 kts 270°
2026-04-27 11:03 54.93100 72.98210 8025 ft 261 kts 272°
2026-04-27 11:03 54.93193 72.95035 8735 ft 264 kts 271°
2026-04-27 11:04 54.93287 72.91829 9445 ft 268 kts 269°
2026-04-27 11:04 54.93366 72.88574 10133 ft 271 kts 268°
2026-04-27 11:04 54.93429 72.85237 10534 ft 286 kts 267°
2026-04-27 11:04 54.93479 72.81643 10678 ft 308 kts 267°
2026-04-27 11:05 54.93524 72.77785 10842 ft 328 kts 268°
2026-04-27 11:05 54.93568 72.73770 11303 ft 336 kts 268°
2026-04-27 11:05 54.93613 72.69693 11932 ft 339 kts 267°
2026-04-27 11:05 54.93657 72.65576 12584 ft 341 kts 267°
2026-04-27 11:06 54.93699 72.61443 13217 ft 344 kts 266°
2026-04-27 11:06 54.93772 72.57261 13843 ft 349 kts 270°
2026-04-27 11:06 54.94226 72.53064 14402 ft 358 kts 281°
2026-04-27 11:06 54.95183 72.48985 14937 ft 369 kts 292°
2026-04-27 11:07 54.96396 72.45031 15471 ft 372 kts 291°
2026-04-27 11:07 54.97598 72.41081 15971 ft 375 kts 291°
2026-04-27 11:07 54.98817 72.37050 16516 ft 378 kts 291°
2026-04-27 11:07 54.99644 72.34302 16876 ft 379 kts 291°